Location: *
(17.3280°S, 114.7300°W)
Time: 15:34:01
(UTC+00:00)

Hubble Space Telescope - Pass Details

Date: 29 October 2020
Orbit: 536 x 540 km, 28.5° (Epoch: 29 November)

Event Time Altitude Azimuth Distance (km) Brightness Sun altitude
Exits shadow 11:42:35 15° 223° (SW) 1,492 2.8 -18.8°
Maximum altitude 11:45:32 35° 162° (SSE) 877 2.2 -18.1°
Drops below altitude 10° 11:49:22 10° 95° (E) 1,793 4.6 -17.3°
Sets 11:51:46 0° 86° (E) 2,681 5.6 -16.7°
